Погода в Яшкуле

Россия / Республика Калмыкия     46°10′18″N   45°20′26″E
темп.,
°C
ветер,
м/с
пор.,
м/с
влажн.,
%
обл.,
%
осадки,
мм/ч
давл.,
гПа
погр.,
м
14 апреля, ср
ср1400:00+12всв453786 0.0 101975
03:00+11всв474245 0.0 1017111
06:00+11в2350100 0.0 101744
09:00+17вюв583634 0.0 1016610
12:00+19вюв71134100 0.0 10151031
15:00+19юв3736100 0.0 1015609
18:00+18ююв3539100 0.0 1015114
21:00+15юв3767100 0.1 1016243
15 апреля, чт
чт1500:00+13юз226058 0.0 101639
03:00+12зсз5979100 0.0 1015207
06:00+11сз478163 0.0 1016177
09:00+16сз4558100 0.0 1016493
12:00+20сз5540100 0.0 10151000
15:00+21ссз4532100 0.0 10142209
18:00+19сз3543100 0.0 1015117
21:00+17зсз5854100 0.0 1015197
16 апреля, пт
пт1600:00+14сз496262 0.0 1015231
03:00+13сз49615 0.0 1016181
06:00+12сз486884 0.0 1017168
09:00+18сз5649100 0.0 1017592
12:00+21ссз5536100 0.0 10171474
15:00+22ссз553099 0.0 10172084
18:00+20с463627 0.0 1016143
21:00+17ссв334197 0.0 101721
17 апреля, сб
сб1700:00+15св224474 0.0 101711
03:00+12ссз71277100 0.0 1018357
06:00+12сз4978100 0.0 1019305
09:00+11зсз71182100 0.5 1021650
12:00+11зсз4686100 4.0 1023405
15:00+15сз555792 4.5 10231384
18:00+15зсз465287 0.0 1022246
21:00+11з456252 0.0 102378
18 апреля, вс
вс1800:00+10с347046 0.0 102358
03:00+9с337434 0.0 102341
06:00+9ссз237588 0.0 102446
09:00+13с3454100 0.0 1023546
12:00+16с3339100 0.0 10221223
15:00+18с4435100 0.0 10211922
18:00+17с1138100 0.0 102249
21:00+15ссз3341100 0.0 102230